Temp
2 2 2 2 3 2 2 2 1 2 2 2 2 3 3 3 2 2 2 2 2 2 1 1 1 1 1 1 0 -0 -1 -1 -1 -1 -1 -1 -1 -1 -0 -0 -1 -1 -2 2
1 1 1 2 2 2 2 1 2 2 2 2 2 2 2 2 2 2 2 2 2 2 1 1 1 0 1 0 0 -0 -1 -1 -1 -1 -1 -0 -0 -0 0 0 0 1 -1 2
-0 -0 0 0 1 1 1 1 -0 1 2 2 1 1 1 1 2 2 1 1 1 1 2 1 1 1 0 0 -0 -0 -1 -1 -0 -0 1 0 0 1 1 0 -1 1 1 3
-1 -1 -1 -1 -1 -1 -0 -0 -0 0 0 1 1 1 1 1 1 1 1 1 2 1 1 1 1 1 0 -0 -0 -0 -1 -1 -0 0 -0 -0 0 0 1 1 1 1 3 2
-2 -2 -1 -2 -2 -1 -2 -1 -1 -1 -1 -1 0 0 0 1 1 -0 1 1 1 1 1 2 1 1 1 0 -0 -1 -1 -1 -1 -0 0 0 0 1 1 1 1 1 1 4
-3 -2 -3 -3 -3 -3 -2 -2 -2 -2 -2 -1 -1 -1 -0 -0 -0 -0 -0 0 -0 0 1 -0 -0 -0 -1 -0 -0 -1 -1 -1 -1 -1 -0 -1 -0 3 2 3 2 2 2 5
-5 -3 -3 -4 -3 -4 -4 -3 -3 -3 -2 -3 -2 -3 -2 -2 -2 -2 -1 -1 -1 -1 -1 -1 -1 -1 -1 -1 -1 -1 -1 -2 -2 -2 -2 -2 2 2 2 3 4 3 3 4
-6 -5 -5 -4 -5 -4 -5 -5 -4 -4 -4 -4 -4 -3 -4 -4 -3 -3 -2 -2 -2 -2 -2 -2 -2 -2 -1 -1 -1 -1 -2 -3 -3 -2 -3 0 3 3 3 3 3 3 3 3
-5 -6 -6 -6 -6 -6 -6 -6 -6 -6 -6 -6 -5 -5 -4 -4 -4 -3 -3 -3 -3 -3 -3 -3 -3 -2 -1 -1 -1 -1 -3 -4 -4 -4 -4 -4 2 2 2 2 2 2 2 2
-8 -7 -6 -6 -6 -6 -6 -6 -6 -6 -6 -6 -6 -5 -5 -5 -4 -4 -4 -3 -3 -3 -4 -4 -4 -3 -2 -1 -0 -0 -3 -5 -4 -5 -4 -3 1 1 1 -0 1 1 1 1
-10 -10 -10 -8 -7 -7 -6 -6 -6 -6 -6 -6 -6 -6 -6 -5 -5 -5 -5 -5 -4 -4 -4 -5 -4 -4 -3 -2 -2 -0 0 -1 -2 -6 -6 -5 1 0 -0 0 0 0 -0 -0
-10 -10 -10 -10 -10 -9 -8 -8 -7 -7 -7 -7 -6 -6 -6 -6 -6 -6 -7 -5 -5 -5 -5 -4 -4 -4 -4 -3 -3 -2 -2 -1 -0 -1 0 -0 -0 -0 -1 -1 -1 -1 -2 -2
-11 -11 -11 -10 -10 -11 -11 -11 -9 -8 -7 -7 -7 -6 -7 -6 -6 -6 -6 -6 -6 -6 -6 -6 -6 -5 -5 -4 -4 -3 -2 -2 -2 -2 -1 -1 -1 -1 -2 -2 -2 -2 -3 -3
-13 -11 -11 -11 -11 -11 -11 -11 -11 -11 -10 -8 -7 -7 -7 -7 -7 -7 -7 -6 -6 -6 -6 -6 -6 -7 -6 -5 -5 -4 -4 -4 -4 -3 -3 -3 -2 -2 -3 -3 -4 -4 -4 -4
-14 -14 -13 -13 -13 -12 -11 -11 -11 -12 -12 -10 -9 -9 -8 -8 -7 -7 -7 -7 -7 -7 -7 -6 -6 -6 -6 -6 -6 -6 -5 -5 -6 -5 -4 -5 -4 -4 -4 -4 -4 -4 -4 -4
-14 -13 -13 -14 -14 -14 -14 -13 -12 -12 -12 -12 -11 -9 -8 -9 -9 -8 -8 -8 -7 -7 -7 -7 -7 -7 -7 -7 -6 -6 -6 -6 -6 -6 -6 -6 -5 -4 -4 -5 -5 -5 -5 -5
-14 -14 -14 -14 -14 -15 -15 -15 -14 -13 -12 -12 -12 -10 -10 -9 -9 -9 -9 -9 -9 -8 -9 -8 -8 -8 -8 -8 -7 -7 -7 -7 -7 -7 -7 -6 -6 -6 -6 -5 -5 -5 -5 -5
-14 -14 -14 -14 -14 -14 -14 -14 -14 -14 -14 -14 -12 -12 -10 -10 -10 -10 -10 -10 -10 -9 -9 -9 -9 -9 -9 -9 -7 -7 -8 -8 -8 -8 -8 -8 -7 -7 -7 -7 -7 -7 -7 -7
-14 -14 -14 -14 -14 -14 -14 -14 -13 -13 -13 -13 -13 -12 -12 -11 -10 -10 -10 -10 -10 -10 -9 -9 -9 -9 -9 -8 -8 -8 -9 -8 -8 -8 -8 -8 -7 -7 -7 -8 -7 -7 -7 -8
-14 -14 -14 -14 -14 -14 -14 -13 -13 -13 -13 -13 -12 -12 -13 -12 -12 -11 -11 -11 -10 -10 -9 -9 -9 -9 -9 -9 -8 -8 -8 -8 -8 -8 -8 -8 -7 -7 -7 -8 -8 -8 -8 -8
-15 -14 -14 -15 -15 -15 -14 -14 -13 -13 -12 -13 -13 -13 -12 -12 -12 -12 -12 -12 -11 -10 -9 -10 -9 -10 -9 -9 -9 -9 -9 -9 -9 -9 -9 -9 -9 -9 -8 -8 -9 -9 -9 -9
-15 -15 -15 -15 -15 -15 -14 -14 -13 -13 -13 -13 -13 -13 -12 -12 -12 -11 -12 -12 -11 -10 -10 -10 -10 -12 -11 -10 -10 -10 -10 -10 -10 -10 -10 -10 -10 -10 -10 -10 -10 -10 -10 -10
-15 -15 -16 -15 -15 -14 -14 -14 -14 -14 -14 -14 -13 -13 -13 -12 -12 -11 -11 -11 -11 -10 -10 -12 -13 -13 -12 -12 -12 -12 -12 -12 -12 -11 -11 -11 -11 -11 -11 -11 -11 -11 -11 -11
-16 -16 -15 -15 -15 -14 -14 -14 -14 -14 -14 -14 -14 -13 -13 -13 -12 -12 -11 -11 -11 -11 -12 -14 -14 -13 -13 -13 -13 -13 -13 -13 -12 -12 -12 -12 -12 -11 -11 -11 -11 -11 -11 -12
-16 -16 -15 -15 -15 -15 -15 -15 -15 -15 -14 -14 -14 -14 -13 -13 -13 -12 -12 -12 -13 -14 -15 -15 -14 -14 -14 -14 -15 -14 -14 -13 -13 -13 -13 -13 -13 -13 -13 -13 -13 -13 -13 -13
-15 -15 -15 -15 -15 -15 -15 -15 -15 -15 -15 -15 -14 -14 -14 -14 -13 -13 -14 -14 -15 -15 -15 -14 -14 -15 -15 -15 -15 -14 -14 -14 -14 -14 -14 -14 -14 -14 -14 -14 -14 -14 -14 -14
-16 -15 -16 -16 -16 -16 -16 -16 -15 -15 -15 -15 -15 -15 -14 -14 -14 -15 -15 -16 -15 -15 -15 -15 -15 -15 -15 -15 -15 -15 -15 -14 -14 -14 -14 -14 -14 -14 -14 -14 -14 -14 -14 -14
Height
3112 3112 3110 3110 3110 3108 3106 3104 3103 3101 3098 3098 3094 3093 3091 3090 3089 3089 3086 3084 3082 3081 3081 3080 3079 3077 3076 3075 3076 3075 3076 3075 3074 3075 3075 3076 3078 3078 3079 3079 3079 3078 3078 3071
3102 3102 3101 3100 3100 3100 3099 3097 3095 3096 3094 3091 3088 3086 3086 3085 3083 3084 3082 3081 3079 3077 3077 3078 3074 3074 3073 3073 3073 3073 3073 3073 3072 3072 3075 3072 3071 3072 3073 3075 3075 3072 3075 3070
3090 3092 3091 3091 3092 3090 3091 3089 3088 3086 3085 3085 3084 3082 3080 3079 3078 3077 3077 3076 3075 3074 3072 3072 3071 3070 3071 3070 3070 3070 3071 3070 3069 3067 3065 3065 3065 3066 3069 3070 3069 3066 3064 3063
3079 3080 3080 3081 3081 3082 3083 3079 3077 3078 3076 3075 3076 3077 3076 3074 3074 3072 3071 3070 3071 3071 3069 3067 3065 3066 3066 3068 3067 3067 3066 3065 3065 3064 3064 3062 3062 3062 3062 3061 3062 3061 3055 3055
3067 3068 3070 3070 3071 3071 3072 3070 3069 3068 3067 3067 3068 3066 3067 3067 3067 3067 3065 3064 3066 3065 3063 3065 3063 3062 3061 3062 3063 3063 3063 3061 3059 3059 3059 3058 3055 3055 3055 3054 3053 3051 3051 3044
3053 3056 3057 3057 3058 3059 3058 3059 3058 3057 3056 3058 3058 3058 3057 3057 3057 3057 3057 3057 3057 3057 3059 3057 3057 3057 3057 3056 3057 3058 3059 3059 3057 3055 3055 3054 3050 3044 3045 3045 3046 3047 3045 3042
3038 3040 3043 3045 3046 3047 3047 3049 3048 3047 3042 3046 3047 3047 3048 3047 3049 3047 3049 3051 3050 3052 3051 3052 3051 3050 3050 3050 3050 3051 3052 3055 3056 3054 3053 3054 3042 3041 3041 3042 3041 3041 3040 3041
3021 3025 3027 3030 3032 3034 3034 3036 3037 3034 3029 3033 3037 3039 3037 3038 3039 3038 3041 3042 3043 3044 3046 3047 3044 3044 3044 3042 3042 3043 3044 3047 3050 3051 3049 3042 3039 3038 3039 3038 3038 3037 3036 3036
3002 3006 3011 3015 3019 3021 3023 3025 3024 3024 3021 3017 3027 3029 3028 3029 3028 3030 3032 3034 3035 3036 3039 3039 3038 3037 3036 3035 3033 3032 3036 3039 3043 3044 3044 3042 3036 3035 3035 3035 3032 3032 3031 3030
2991 2993 2997 3002 3005 3007 3010 3012 3012 3013 3010 3010 3016 3019 3020 3020 3022 3021 3023 3024 3026 3027 3028 3031 3030 3031 3031 3030 3028 3029 3030 3032 3033 3035 3036 3032 3032 3032 3031 3034 3033 3028 3029 3028
2988 2987 2984 2987 2992 2995 2997 2999 3000 3002 3001 3002 3005 3008 3011 3011 3013 3015 3015 3018 3016 3019 3021 3022 3021 3021 3022 3022 3022 3024 3025 3025 3026 3030 3032 3028 3024 3026 3029 3028 3026 3025 3024 3024
2988 2987 2981 2979 2981 2982 2984 2988 2989 2990 2992 2993 2995 2998 3000 3002 3004 3005 3004 3009 3010 3010 3012 3013 3013 3013 3012 3014 3015 3017 3019 3019 3019 3021 3019 3020 3020 3022 3022 3023 3023 3021 3019 3018
2981 2981 2982 2980 2979 2976 2974 2977 2979 2980 2982 2982 2985 2989 2993 2992 2996 2996 2995 2997 3001 3002 3004 3005 3006 3007 3006 3006 3007 3010 3010 3012 3011 3013 3013 3015 3016 3014 3015 3015 3014 3014 3012 3010
2974 2974 2974 2976 2976 2975 2972 2971 2971 2970 2971 2972 2976 2979 2980 2981 2984 2985 2986 2988 2989 2992 2994 2994 2995 2996 2998 2997 2999 2999 3003 3005 3004 3000 3003 3006 3006 3006 3006 3005 3004 3003 3002 3001
2973 2971 2970 2968 2967 2967 2969 2968 2967 2967 2970 2966 2965 2967 2973 2971 2973 2974 2976 2978 2979 2981 2984 2984 2984 2986 2989 2987 2987 2983 2990 2992 2993 2988 2996 2995 2994 2996 2994 2992 2992 2992 2990 2989
2969 2968 2966 2964 2963 2960 2961 2962 2964 2963 2964 2961 2959 2959 2963 2964 2965 2966 2966 2968 2969 2972 2973 2975 2975 2977 2981 2978 2973 2975 2979 2982 2983 2981 2985 2984 2984 2984 2984 2981 2981 2980 2978 2978
2966 2964 2963 2961 2960 2959 2960 2962 2960 2959 2961 2960 2957 2954 2954 2954 2956 2958 2961 2962 2962 2964 2966 2967 2969 2972 2973 2970 2964 2970 2973 2974 2972 2973 2972 2971 2973 2971 2971 2970 2969 2969 2969 2968
2961 2960 2958 2957 2957 2958 2958 2958 2957 2956 2954 2954 2953 2951 2954 2953 2954 2956 2958 2958 2959 2959 2960 2960 2961 2963 2963 2960 2959 2963 2962 2962 2963 2964 2963 2962 2961 2961 2959 2958 2957 2957 2958 2958
2955 2955 2954 2955 2956 2955 2953 2952 2952 2952 2954 2950 2945 2945 2949 2948 2950 2952 2953 2953 2953 2953 2952 2954 2957 2955 2955 2955 2955 2954 2955 2955 2954 2955 2956 2954 2951 2950 2949 2947 2947 2947 2948 2948
2949 2949 2950 2950 2951 2950 2950 2948 2946 2943 2942 2939 2937 2940 2942 2945 2947 2948 2951 2949 2948 2946 2946 2947 2947 2946 2947 2947 2947 2947 2947 2947 2946 2946 2946 2945 2943 2942 2940 2939 2939 2938 2939 2938
2944 2944 2945 2946 2946 2946 2946 2944 2942 2939 2938 2937 2936 2936 2935 2938 2939 2940 2943 2942 2942 2939 2940 2941 2939 2938 2939 2940 2941 2941 2940 2940 2939 2938 2936 2935 2934 2934 2933 2932 2932 2931 2930 2929
2940 2941 2941 2942 2942 2942 2942 2940 2939 2938 2934 2935 2933 2932 2932 2932 2933 2933 2932 2933 2935 2931 2931 2934 2933 2932 2933 2934 2935 2935 2935 2934 2932 2931 2930 2929 2928 2926 2926 2926 2926 2925 2925 2925
2936 2938 2938 2940 2941 2940 2938 2937 2936 2935 2933 2932 2931 2932 2931 2929 2929 2928 2927 2925 2925 2926 2927 2928 2931 2931 2931 2931 2931 2931 2931 2930 2929 2927 2926 2925 2925 2925 2924 2923 2922 2922 2921 2921
2934 2935 2936 2936 2936 2936 2935 2936 2936 2935 2933 2932 2931 2930 2929 2928 2927 2926 2924 2925 2924 2924 2926 2929 2930 2931 2931 2931 2930 2930 2929 2929 2928 2927 2926 2925 2924 2923 2922 2921 2920 2918 2917 2917
2932 2933 2933 2934 2935 2935 2935 2934 2933 2932 2931 2929 2929 2928 2927 2926 2926 2924 2924 2924 2924 2926 2929 2930 2930 2930 2930 2929 2929 2930 2930 2930 2928 2926 2925 2924 2923 2922 2920 2919 2918 2917 2916 2914
2932 2933 2934 2934 2935 2935 2935 2932 2931 2930 2929 2927 2927 2926 2926 2925 2924 2924 2923 2924 2926 2929 2929 2930 2929 2930 2930 2930 2931 2931 2930 2929 2927 2926 2925 2924 2922 2921 2919 2918 2916 2915 2914 2913
2934 2934 2934 2935 2935 2935 2934 2933 2932 2931 2929 2927 2926 2926 2925 2925 2924 2925 2926 2928 2930 2930 2930 2930 2930 2931 2930 2930 2930 2929 2928 2926 2925 2923 2922 2920 2918 2917 2915 2914 2912 2911 2910 2908
Wind_Speed
34 33 31 30 29 27 26 26 24 22 23 25 24 25 25 24 21 18 17 17 16 14 12 11 9 8 6 6 9 5 8 6 6 10 13 14 19 14 22 9 5 5 1 11
37 36 35 33 31 30 29 27 27 26 24 23 25 25 24 24 24 21 20 16 13 13 12 7 9 11 8 10 9 5 6 6 3 2 12 18 23 24 21 21 20 18 5 10
39 38 37 36 34 32 30 29 24 26 29 26 19 22 24 26 27 26 24 23 22 19 17 15 11 8 8 9 11 11 10 12 12 9 3 6 22 25 26 25 17 22 28 33
42 39 38 37 35 33 30 30 28 26 23 28 28 29 28 30 25 21 20 22 20 21 22 17 18 17 17 16 14 14 13 15 15 16 19 19 18 18 24 32 34 32 38 36
46 41 41 38 37 34 32 31 28 30 31 30 31 33 36 33 29 28 30 31 25 24 24 19 16 12 11 12 12 15 18 14 14 17 16 19 25 25 28 30 31 34 35 39
47 44 42 40 36 34 32 32 33 34 37 38 39 40 36 35 33 32 28 28 27 27 22 19 21 22 19 16 14 12 15 12 8 5 9 10 17 22 28 32 34 33 36 31
44 47 45 44 40 35 31 32 35 39 44 41 39 37 36 33 27 28 27 26 22 21 21 21 23 23 23 23 22 22 20 15 12 7 5 3 8 7 7 8 11 16 19 17
47 46 49 49 43 40 34 37 38 39 45 42 38 36 38 33 30 30 29 26 26 25 23 21 18 21 24 27 27 27 26 23 10 6 9 16 20 18 15 11 17 17 23 19
35 40 44 48 44 47 44 41 35 37 41 45 33 31 29 31 29 30 30 28 26 25 24 22 13 10 8 7 7 27 32 27 22 12 5 6 5 6 7 15 26 11 7 9
28 29 40 41 43 49 45 40 35 34 37 41 34 32 30 26 22 26 24 22 24 26 25 24 21 19 15 11 14 11 18 23 30 29 11 10 17 20 19 8 8 9 10 11
6 6 14 27 37 40 40 40 41 37 38 40 39 34 31 28 29 26 20 18 23 22 21 19 19 17 20 23 23 18 18 13 15 18 11 11 8 10 8 9 13 13 11 13
19 13 8 10 8 19 29 33 35 37 37 38 33 38 37 34 32 30 30 30 17 15 13 18 15 15 14 20 16 23 25 27 20 17 8 6 7 16 22 24 22 21 15 14
29 21 19 16 12 10 9 11 23 31 37 43 42 41 34 34 32 27 30 38 34 31 21 20 19 17 17 19 22 22 22 18 23 24 29 28 30 29 29 25 25 24 24 27
20 31 36 34 28 21 18 17 13 19 25 36 37 27 27 29 33 36 37 36 33 34 33 36 38 37 32 35 34 36 34 31 34 41 39 38 36 35 34 34 31 27 26 31
21 18 18 19 19 24 35 35 25 21 24 26 29 24 27 29 35 36 32 25 27 32 31 39 42 41 38 43 43 48 44 42 40 45 32 31 30 25 24 28 31 33 35 34
17 15 15 15 16 15 12 15 21 10 15 20 27 23 15 20 23 26 26 26 28 21 18 22 27 31 33 28 39 36 32 28 21 24 25 29 29 26 27 31 32 33 35 36
20 17 14 13 15 15 13 10 9 12 14 13 15 11 5 6 6 18 22 28 27 27 27 27 23 24 26 33 42 33 34 29 28 31 26 27 26 31 32 34 36 37 38 37
19 19 16 15 14 17 18 12 14 16 20 21 12 11 10 6 10 14 16 16 15 18 19 24 23 23 23 26 35 30 26 25 22 19 22 26 27 28 32 35 37 37 38 37
21 20 21 22 19 18 11 11 13 15 17 20 18 21 18 15 13 9 11 15 21 21 24 22 22 26 23 23 23 23 24 23 19 13 18 27 28 28 28 28 30 31 30 30
16 20 19 19 15 13 14 14 15 19 21 29 32 32 31 24 21 18 14 12 12 14 15 14 20 26 27 28 28 29 25 25 29 27 27 25 26 28 28 28 27 26 28 30
15 17 18 17 14 15 15 8 6 7 8 13 21 23 24 21 28 29 20 15 9 12 18 19 14 18 24 24 24 24 25 25 25 24 24 25 24 25 25 24 26 25 21 17
16 14 14 13 14 9 7 6 6 6 1 10 10 10 8 9 10 13 10 16 10 9 12 11 8 4 12 17 19 20 21 23 23 23 22 19 13 8 8 6 9 11 12 12
14 11 8 6 4 7 5 4 5 7 17 20 18 13 12 5 6 10 7 5 8 5 7 5 3 3 5 8 10 11 11 6 4 6 8 10 12 13 12 11 11 13 13 14
8 6 6 5 4 6 7 10 12 13 15 18 14 13 8 8 7 5 3 2 1 2 4 5 6 4 8 8 5 3 7 8 8 9 10 10 11 11 12 13 13 12 12 12
5 4 6 8 4 4 8 13 16 15 14 15 12 8 5 6 5 4 2 1 4 5 6 7 6 7 7 9 11 10 9 8 9 9 9 10 10 11 12 11 11 11 11 11
2 0 3 2 0 1 5 7 9 9 10 11 6 3 3 2 4 2 2 3 4 5 7 6 9 10 9 8 6 6 7 8 10 10 11 11 11 11 12 13 14 13 13 12
3 3 2 3 4 5 4 6 8 9 11 11 3 3 3 3 2 4 5 9 10 9 8 8 7 6 5 6 8 10 11 12 13 14 14 15 15 15 16 16 18 18 19 20
Wind_Direction
276 278 280 283 284 285 288 293 301 298 302 299 294 294 295 294 288 287 279 273 277 275 273 283 268 248 238 244 253 254 242 240 223 226 216 235 227 225 215 219 219 219 252 281
270 273 275 275 276 279 283 284 286 293 294 293 300 296 290 286 284 282 276 265 266 274 270 263 264 261 256 249 245 240 222 226 219 216 229 225 231 233 229 241 253 253 215 257
266 269 271 271 273 275 279 282 285 286 291 296 295 297 289 281 281 280 272 266 266 268 266 260 257 259 265 253 246 239 239 243 232 225 234 226 225 237 234 242 246 253 249 271
267 267 267 268 270 273 274 276 281 280 275 285 291 288 283 283 282 277 275 267 268 269 265 262 259 258 260 263 255 243 236 253 259 261 261 258 252 242 243 244 252 251 267 267
262 260 262 263 265 266 269 271 276 279 278 281 283 282 281 282 278 271 270 271 277 270 260 265 261 262 255 257 256 243 244 253 267 277 265 262 264 256 250 250 252 256 260 271
262 264 259 259 262 264 267 273 277 279 279 281 280 276 273 272 271 272 268 268 264 260 264 256 254 258 260 250 249 249 245 250 257 260 277 283 277 268 253 257 259 262 262 281
260 258 254 255 258 260 265 270 274 276 276 273 270 263 264 262 264 261 258 260 260 260 261 256 255 255 255 252 251 249 247 246 245 270 270 257 265 272 265 270 285 284 287 302
251 250 252 255 258 260 269 273 268 269 271 270 264 267 266 258 253 256 256 254 254 257 259 262 264 258 259 254 249 246 242 237 228 239 220 277 274 268 281 290 305 302 299 293
218 221 233 246 256 259 269 276 269 263 266 267 269 264 262 260 255 255 254 253 252 254 256 254 239 231 233 232 236 230 231 230 223 218 215 228 278 274 279 294 294 301 304 313
206 211 221 239 245 259 248 259 261 251 255 263 268 262 262 262 259 252 254 252 249 249 246 241 237 235 232 239 235 227 212 224 223 227 234 245 269 274 282 273 291 293 293 293
230 196 193 222 233 238 236 247 256 257 262 259 261 263 258 254 251 249 250 248 243 241 235 233 236 237 234 239 239 243 242 229 214 217 214 259 261 252 252 302 307 287 283 298
245 246 185 172 186 230 237 238 242 245 249 254 255 256 262 256 250 242 243 242 237 218 219 227 227 227 227 231 234 237 239 241 247 229 252 235 259 289 293 292 292 287 290 284
260 247 244 232 213 196 201 259 250 244 245 249 253 258 260 258 258 247 253 246 242 235 230 233 234 242 244 239 242 243 243 248 249 260 265 267 274 279 284 286 289 272 274 288
288 276 272 263 253 240 233 235 233 242 245 251 251 251 251 252 251 251 246 245 240 246 249 244 244 246 256 255 258 257 255 258 262 266 270 281 282 284 284 277 278 273 272 281
313 315 291 277 278 278 257 256 260 271 272 261 258 245 242 252 248 251 247 240 243 242 247 247 248 253 254 259 264 263 266 271 267 275 288 285 282 285 276 273 272 271 272 272
298 296 304 313 288 283 300 283 281 287 265 291 292 268 256 250 255 258 265 254 254 244 247 256 259 262 260 260 266 276 281 289 286 280 287 283 279 271 273 275 273 271 272 274
298 297 295 295 309 316 324 303 275 244 237 259 278 293 278 90 209 233 242 246 254 266 271 269 268 266 272 274 272 274 288 281 268 280 278 265 264 268 269 268 269 271 273 273
286 290 294 301 305 309 302 291 278 282 295 293 259 251 218 216 292 302 298 286 274 262 266 276 283 284 278 271 287 297 292 285 283 287 282 282 281 275 270 269 269 271 271 268
277 273 278 289 293 301 301 280 269 265 254 259 270 267 275 274 280 273 272 254 255 257 259 262 262 262 257 266 267 269 294 292 272 273 287 302 290 278 274 275 270 268 269 271
268 270 277 288 297 289 305 306 286 270 256 245 252 260 259 264 263 264 266 268 265 260 261 263 246 254 260 260 269 281 277 267 285 286 287 291 284 282 278 277 280 281 278 272
282 272 274 280 289 291 300 279 252 249 218 246 267 276 276 276 268 267 257 249 248 254 255 239 244 241 246 255 267 276 282 287 291 293 287 292 289 281 282 285 284 285 275 268
276 282 285 279 271 275 257 246 238 264 38 10 0 346 330 286 284 259 228 226 217 229 230 214 203 217 254 265 274 286 295 296 293 291 286 278 274 282 282 292 289 293 297 306
265 272 272 267 238 238 234 246 261 283 332 340 339 347 348 316 247 234 234 224 210 175 183 150 68 353 330 312 313 309 303 300 323 353 356 354 349 343 339 334 327 315 308 298
241 255 224 214 196 224 237 251 271 296 316 321 317 319 309 289 308 277 271 292 245 136 70 75 97 117 100 93 99 78 37 19 12 0 352 347 340 333 328 323 317 312 307 304
226 213 207 200 242 276 298 300 289 291 295 310 325 314 310 311 261 263 324 26 74 69 105 128 135 124 97 77 58 48 45 31 22 14 9 2 355 347 341 339 336 334 330 325
300 144 125 159 168 276 327 346 347 333 323 319 324 317 287 276 288 313 30 81 68 117 141 134 96 81 67 46 22 356 350 342 339 335 330 329 329 328 327 326 325 324 323 319
58 40 307 280 297 323 356 12 360 0 3 8 8 330 338 335 34 52 48 94 105 101 89 71 58 40 9 335 324 323 321 320 318 316 313 311 309 306 302 300 299 297 294 292